Time,TemperatureF,DewpointF,PressureIn,WindDirection,WindDirectionDegrees,WindSpeedMPH,WindSpeedGustMPH,Humidity,HourlyPrecipIn,Conditions,Clouds,dailyrainin,SolarRadiationWatts/m^2,SoftwareType,DateUTC
2013-03-09 00:01:00,32.0,19.0,-100.00,SW,214,2.0,4.0,58,0.00,,,0.00,0.000000,,2013-03-09 08:01:00,
2013-03-09 00:11:00,32.0,19.0,-100.00,SW,214,2.0,4.0,58,0.00,,,0.00,0.000000,,2013-03-09 08:11:00,
2013-03-09 00:42:00,29.0,15.0,-100.00,SSE,166,5.0,6.0,56,0.00,,,0.00,0.000000,,2013-03-09 08:42:00,
2013-03-09 00:52:00,29.0,15.0,-100.00,SSE,166,5.0,6.0,56,0.00,,,0.00,0.000000,,2013-03-09 08:52:00,
2013-03-09 01:01:00,29.0,15.0,-100.00,SSE,166,5.0,6.0,56,0.00,,,0.00,0.000000,,2013-03-09 09:01:00,
2013-03-09 01:11:00,29.0,15.0,-100.00,SSE,166,5.0,6.0,56,0.00,,,0.00,0.000000,,2013-03-09 09:11:00,
2013-03-09 01:32:00,29.0,14.0,-100.00,SSE,148,4.0,6.0,54,0.00,,,0.00,0.000000,,2013-03-09 09:32:00,
2013-03-09 01:42:00,29.0,14.0,-100.00,SSE,148,4.0,6.0,54,0.00,,,0.00,0.000000,,2013-03-09 09:42:00,
2013-03-09 01:52:00,29.0,14.0,-100.00,SSE,148,4.0,6.0,54,0.00,,,0.00,0.000000,,2013-03-09 09:52:00,
2013-03-09 02:01:00,29.0,14.0,-100.00,SSE,148,4.0,6.0,54,0.00,,,0.00,0.000000,,2013-03-09 10:01:00,
2013-03-09 02:11:00,29.0,14.0,-100.00,SSE,148,4.0,6.0,54,0.00,,,0.00,0.000000,,2013-03-09 10:11:00,
2013-03-09 02:42:00,30.0,14.0,-100.00,SSE,151,2.0,5.0,50,0.00,,,0.00,0.000000,,2013-03-09 10:42:00,
2013-03-09 02:52:00,30.0,14.0,-100.00,SSE,151,2.0,5.0,50,0.00,,,0.00,0.000000,,2013-03-09 10:52:00,
2013-03-09 03:01:00,30.0,14.0,-100.00,SSE,151,2.0,5.0,50,0.00,,,0.00,0.000000,,2013-03-09 11:01:00,
2013-03-09 03:11:00,30.0,14.0,-100.00,SSE,151,2.0,5.0,50,0.00,,,0.00,0.000000,,2013-03-09 11:11:00,
2013-03-09 03:32:00,29.0,14.0,-100.00,SSE,159,4.0,6.0,52,0.00,,,0.00,0.000000,,2013-03-09 11:32:00,
2013-03-09 03:42:00,29.0,14.0,-100.00,SSE,159,4.0,6.0,52,0.00,,,0.00,0.000000,,2013-03-09 11:42:00,
2013-03-09 03:52:00,29.0,14.0,-100.00,SSE,159,4.0,6.0,52,0.00,,,0.00,0.000000,,2013-03-09 11:52:00,
2013-03-09 04:01:00,29.0,14.0,-100.00,SSE,159,4.0,6.0,52,0.00,,,0.00,0.000000,,2013-03-09 12:01:00,
2013-03-09 04:11:00,29.0,14.0,-100.00,SSE,159,4.0,6.0,52,0.00,,,0.00,0.000000,,2013-03-09 12:11:00,
2013-03-09 04:32:00,30.0,15.0,-100.00,SW,219,2.0,5.0,54,0.00,,,0.00,0.000000,,2013-03-09 12:32:00,
2013-03-09 04:42:00,30.0,15.0,-100.00,SW,219,2.0,5.0,54,0.00,,,0.00,0.000000,,2013-03-09 12:42:00,
2013-03-09 04:52:00,30.0,15.0,-100.00,SW,219,2.0,5.0,54,0.00,,,0.00,0.000000,,2013-03-09 12:52:00,
2013-03-09 05:02:00,30.0,15.0,-100.00,SW,219,2.0,5.0,54,0.00,,,0.00,0.000000,,2013-03-09 13:02:00,
2013-03-09 05:11:00,30.0,15.0,-100.00,SW,219,2.0,5.0,54,0.00,,,0.00,0.000000,,2013-03-09 13:11:00,
2013-03-09 05:32:00,28.0,14.0,-100.00,SSE,162,5.0,5.0,56,0.00,,,0.00,0.000000,,2013-03-09 13:32:00,
2013-03-09 05:42:00,28.0,14.0,-100.00,SSE,162,5.0,5.0,56,0.00,,,0.00,0.000000,,2013-03-09 13:42:00,
2013-03-09 05:52:00,28.0,14.0,-100.00,SSE,162,5.0,5.0,56,0.00,,,0.00,0.000000,,2013-03-09 13:52:00,
2013-03-09 06:01:00,28.0,14.0,-100.00,SSE,162,5.0,5.0,56,0.00,,,0.00,0.000000,,2013-03-09 14:01:00,
2013-03-09 06:11:00,28.0,14.0,-100.00,SSE,162,5.0,5.0,56,0.00,,,0.00,0.000000,,2013-03-09 14:11:00,
2013-03-09 06:32:00,28.0,16.0,-100.00,SSE,157,5.0,6.0,60,0.00,,,0.00,0.000000,,2013-03-09 14:32:00,
2013-03-09 06:42:00,28.0,16.0,-100.00,SSE,157,5.0,6.0,60,0.00,,,0.00,0.000000,,2013-03-09 14:42:00,
2013-03-09 06:52:00,28.0,16.0,-100.00,SSE,157,5.0,6.0,60,0.00,,,0.00,0.000000,,2013-03-09 14:52:00,
2013-03-09 07:01:00,28.0,16.0,-100.00,SSE,157,5.0,6.0,60,0.00,,,0.00,0.000000,,2013-03-09 15:01:00,
2013-03-09 07:11:00,28.0,16.0,-100.00,SSE,157,5.0,6.0,60,0.00,,,0.00,0.000000,,2013-03-09 15:11:00,
2013-03-09 07:32:00,31.0,19.0,-100.00,SSE,155,4.0,6.0,61,0.00,,,-99.99,42.000000,,2013-03-09 15:32:00,
2013-03-09 07:42:00,31.0,19.0,-100.00,SSE,155,4.0,6.0,61,0.00,,,-99.99,42.000000,,2013-03-09 15:42:00,
2013-03-09 07:52:00,31.0,19.0,-100.00,SSE,155,4.0,6.0,61,0.00,,,-99.99,42.000000,,2013-03-09 15:52:00,
2013-03-09 08:01:00,31.0,19.0,-100.00,SSE,155,4.0,6.0,61,0.00,,,-99.99,42.000000,,2013-03-09 16:01:00,
2013-03-09 08:11:00,31.0,19.0,-100.00,SSE,155,4.0,6.0,61,0.00,,,-99.99,42.000000,,2013-03-09 16:11:00,
2013-03-09 08:32:00,35.0,23.0,-100.00,SSE,153,4.0,7.0,60,0.00,,,0.00,242.000000,,2013-03-09 16:32:00,
2013-03-09 08:42:00,35.0,23.0,-100.00,SSE,153,4.0,7.0,60,0.00,,,0.00,242.000000,,2013-03-09 16:42:00,
2013-03-09 08:52:00,35.0,23.0,-100.00,SSE,153,4.0,7.0,60,0.00,,,0.00,242.000000,,2013-03-09 16:52:00,
2013-03-09 09:01:00,35.0,23.0,-100.00,SSE,153,4.0,7.0,60,0.00,,,0.00,242.000000,,2013-03-09 17:01:00,
2013-03-09 09:11:00,35.0,23.0,-100.00,SSE,153,4.0,7.0,60,0.00,,,0.00,242.000000,,2013-03-09 17:11:00,
2013-03-09 09:32:00,40.0,23.0,-100.00,SSE,154,4.0,7.0,50,0.00,,,0.00,452.000000,,2013-03-09 17:32:00,
2013-03-09 09:42:00,40.0,23.0,-100.00,SSE,154,4.0,7.0,50,0.00,,,0.00,452.000000,,2013-03-09 17:42:00,
2013-03-09 09:52:00,40.0,23.0,-100.00,SSE,154,4.0,7.0,50,0.00,,,0.00,452.000000,,2013-03-09 17:52:00,
2013-03-09 10:01:00,40.0,23.0,-100.00,SSE,154,4.0,7.0,50,0.00,,,0.00,452.000000,,2013-03-09 18:01:00,
2013-03-09 10:11:00,40.0,23.0,-100.00,SSE,154,4.0,7.0,50,0.00,,,0.00,452.000000,,2013-03-09 18:11:00,
2013-03-09 10:32:00,42.0,15.0,-100.00,West,265,10.0,15.0,33,0.00,,,0.00,652.000000,,2013-03-09 18:32:00,
2013-03-09 10:42:00,42.0,15.0,-100.00,West,265,10.0,15.0,33,0.00,,,0.00,652.000000,,2013-03-09 18:42:00,
2013-03-09 10:52:00,42.0,15.0,-100.00,West,265,10.0,15.0,33,0.00,,,0.00,652.000000,,2013-03-09 18:52:00,
2013-03-09 11:01:00,42.0,15.0,-100.00,West,265,10.0,15.0,33,0.00,,,0.00,652.000000,,2013-03-09 19:01:00,
2013-03-09 11:11:00,42.0,15.0,-100.00,West,265,10.0,15.0,33,0.00,,,0.00,652.000000,,2013-03-09 19:11:00,
2013-03-09 11:42:00,44.0,14.0,-100.00,WNW,289,9.0,16.0,29,0.00,,,0.00,772.000000,,2013-03-09 19:42:00,
2013-03-09 11:52:00,44.0,14.0,-100.00,WNW,289,9.0,16.0,29,0.00,,,0.00,772.000000,,2013-03-09 19:52:00,
2013-03-09 12:01:00,44.0,14.0,-100.00,WNW,289,9.0,16.0,29,0.00,,,0.00,772.000000,,2013-03-09 20:01:00,
2013-03-09 12:11:00,44.0,14.0,-100.00,WNW,289,9.0,16.0,29,0.00,,,0.00,772.000000,,2013-03-09 20:11:00,
2013-03-09 12:32:00,46.0,15.0,-100.00,WNW,298,8.0,13.0,28,0.00,,,0.00,839.000000,,2013-03-09 20:32:00,
2013-03-09 12:42:00,46.0,15.0,-100.00,WNW,298,8.0,13.0,28,0.00,,,0.00,839.000000,,2013-03-09 20:42:00,
2013-03-09 12:52:00,46.0,15.0,-100.00,WNW,298,8.0,13.0,28,0.00,,,0.00,839.000000,,2013-03-09 20:52:00,
2013-03-09 13:01:00,46.0,15.0,-100.00,WNW,298,8.0,13.0,28,0.00,,,0.00,839.000000,,2013-03-09 21:01:00,
2013-03-09 13:11:00,46.0,15.0,-100.00,WNW,298,8.0,13.0,28,0.00,,,0.00,839.000000,,2013-03-09 21:11:00,
2013-03-09 13:32:00,47.0,10.0,-100.00,North,358,6.0,16.0,22,0.00,,,0.00,835.000000,,2013-03-09 21:32:00,
2013-03-09 13:42:00,47.0,10.0,-100.00,North,358,6.0,16.0,22,0.00,,,0.00,835.000000,,2013-03-09 21:42:00,
2013-03-09 13:52:00,47.0,10.0,-100.00,North,358,6.0,16.0,22,0.00,,,0.00,835.000000,,2013-03-09 21:52:00,
2013-03-09 14:01:00,47.0,10.0,-100.00,North,358,6.0,16.0,22,0.00,,,0.00,835.000000,,2013-03-09 22:01:00,
2013-03-09 14:11:00,47.0,10.0,-100.00,North,358,6.0,16.0,22,0.00,,,0.00,835.000000,,2013-03-09 22:11:00,
2013-03-09 14:42:00,49.0,11.0,-100.00,NW,313,8.0,12.0,21,0.00,,,0.00,779.000000,,2013-03-09 22:42:00,
2013-03-09 14:52:00,49.0,11.0,-100.00,NW,313,8.0,12.0,21,0.00,,,0.00,779.000000,,2013-03-09 22:52:00,
2013-03-09 15:01:00,49.0,11.0,-100.00,NW,313,8.0,12.0,21,0.00,,,0.00,779.000000,,2013-03-09 23:01:00,
2013-03-09 15:11:00,49.0,11.0,-100.00,NW,313,8.0,12.0,21,0.00,,,0.00,779.000000,,2013-03-09 23:11:00,
2013-03-09 15:32:00,49.0,10.0,-100.00,WNW,290,10.0,16.0,20,0.00,,,0.00,652.000000,,2013-03-09 23:32:00,
2013-03-09 15:42:00,49.0,10.0,-100.00,WNW,290,10.0,16.0,20,0.00,,,0.00,652.000000,,2013-03-09 23:42:00,
2013-03-09 15:52:00,49.0,10.0,-100.00,WNW,290,10.0,16.0,20,0.00,,,0.00,652.000000,,2013-03-09 23:52:00,
2013-03-09 16:01:00,49.0,10.0,-100.00,WNW,290,10.0,16.0,20,0.00,,,0.00,652.000000,,2013-03-10 00:01:00,
2013-03-09 16:11:00,49.0,10.0,-100.00,WNW,290,10.0,16.0,20,0.00,,,0.00,652.000000,,2013-03-10 00:11:00,
2013-03-09 16:32:00,48.0,13.0,-100.00,WNW,293,11.0,17.0,24,0.00,,,0.00,477.000000,,2013-03-10 00:32:00,
2013-03-09 16:43:00,48.0,13.0,-100.00,WNW,293,11.0,17.0,24,0.00,,,0.00,477.000000,,2013-03-10 00:43:00,
2013-03-09 16:52:00,48.0,13.0,-100.00,WNW,293,11.0,17.0,24,0.00,,,0.00,477.000000,,2013-03-10 00:52:00,
2013-03-09 17:01:00,48.0,13.0,-100.00,WNW,293,11.0,17.0,24,0.00,,,0.00,477.000000,,2013-03-10 01:01:00,
2013-03-09 17:11:00,48.0,13.0,-100.00,WNW,293,11.0,17.0,24,0.00,,,0.00,477.000000,,2013-03-10 01:11:00,
2013-03-09 17:32:00,47.0,16.0,-100.00,WNW,285,7.0,15.0,29,0.00,,,-99.99,259.000000,,2013-03-10 01:32:00,
2013-03-09 17:42:00,47.0,16.0,-100.00,WNW,285,7.0,15.0,29,0.00,,,-99.99,259.000000,,2013-03-10 01:42:00,
2013-03-09 17:52:00,47.0,16.0,-100.00,WNW,285,7.0,15.0,29,0.00,,,-99.99,259.000000,,2013-03-10 01:52:00,
2013-03-09 18:01:00,47.0,16.0,-100.00,WNW,285,7.0,15.0,29,0.00,,,-99.99,259.000000,,2013-03-10 02:01:00,
2013-03-09 18:11:00,47.0,16.0,-100.00,WNW,285,7.0,15.0,29,0.00,,,-99.99,259.000000,,2013-03-10 02:11:00,
2013-03-09 18:42:00,42.0,14.0,-100.00,SW,214,3.0,10.0,32,0.00,,,-99.99,46.000000,,2013-03-10 02:42:00,
2013-03-09 18:52:00,42.0,14.0,-100.00,SW,214,3.0,10.0,32,0.00,,,-99.99,46.000000,,2013-03-10 02:52:00,
2013-03-09 19:01:00,42.0,14.0,-100.00,SW,214,3.0,10.0,32,0.00,,,-99.99,46.000000,,2013-03-10 03:01:00,
2013-03-09 19:11:00,42.0,14.0,-100.00,SW,214,3.0,10.0,32,0.00,,,-99.99,46.000000,,2013-03-10 03:11:00,
2013-03-09 19:32:00,40.0,15.0,-100.00,WSW,248,5.0,9.0,35,0.00,,,0.00,0.000000,,2013-03-10 03:32:00,
2013-03-09 19:42:00,40.0,15.0,-100.00,WSW,248,5.0,9.0,35,0.00,,,0.00,0.000000,,2013-03-10 03:42:00,
2013-03-09 19:52:00,40.0,15.0,-100.00,WSW,248,5.0,9.0,35,0.00,,,0.00,0.000000,,2013-03-10 03:52:00,
2013-03-09 20:01:00,40.0,15.0,-100.00,WSW,248,5.0,9.0,35,0.00,,,0.00,0.000000,,2013-03-10 04:01:00,
2013-03-09 20:11:00,40.0,15.0,-100.00,WSW,248,5.0,9.0,35,0.00,,,0.00,0.000000,,2013-03-10 04:11:00,
2013-03-09 20:32:00,38.0,16.0,-100.00,WSW,246,4.0,10.0,41,0.00,,,0.00,0.000000,,2013-03-10 04:32:00,
2013-03-09 20:42:00,38.0,16.0,-100.00,WSW,246,4.0,10.0,41,0.00,,,0.00,0.000000,,2013-03-10 04:42:00,
2013-03-09 20:52:00,38.0,16.0,-100.00,WSW,246,4.0,10.0,41,0.00,,,0.00,0.000000,,2013-03-10 04:52:00,
2013-03-09 21:01:00,38.0,16.0,-100.00,WSW,246,4.0,10.0,41,0.00,,,0.00,0.000000,,2013-03-10 05:01:00,
2013-03-09 21:11:00,38.0,16.0,-100.00,WSW,246,4.0,10.0,41,0.00,,,0.00,0.000000,,2013-03-10 05:11:00,
2013-03-09 21:32:00,37.0,18.0,-100.00,SSW,198,4.0,11.0,45,0.00,,,0.00,0.000000,,2013-03-10 05:32:00,
2013-03-09 21:42:00,37.0,18.0,-100.00,SSW,198,4.0,11.0,45,0.00,,,0.00,0.000000,,2013-03-10 05:42:00,
2013-03-09 21:52:00,37.0,18.0,-100.00,SSW,198,4.0,11.0,45,0.00,,,0.00,0.000000,,2013-03-10 05:52:00,
2013-03-09 22:01:00,37.0,18.0,-100.00,SSW,198,4.0,11.0,45,0.00,,,0.00,0.000000,,2013-03-10 06:01:00,
2013-03-09 22:11:00,37.0,18.0,-100.00,SSW,198,4.0,11.0,45,0.00,,,0.00,0.000000,,2013-03-10 06:11:00,
2013-03-09 22:32:00,37.0,18.0,-100.00,SW,216,5.0,12.0,46,0.00,,,0.00,0.000000,,2013-03-10 06:32:00,
2013-03-09 22:42:00,37.0,18.0,-100.00,SW,216,5.0,12.0,46,0.00,,,0.00,0.000000,,2013-03-10 06:42:00,
2013-03-09 22:52:00,37.0,18.0,-100.00,SW,216,5.0,12.0,46,0.00,,,0.00,0.000000,,2013-03-10 06:52:00,
2013-03-09 23:01:00,37.0,18.0,-100.00,SW,216,5.0,12.0,46,0.00,,,0.00,0.000000,,2013-03-10 07:01:00,
2013-03-09 23:11:00,37.0,18.0,-100.00,SW,216,5.0,12.0,46,0.00,,,0.00,0.000000,,2013-03-10 07:11:00,
2013-03-09 23:32:00,36.0,17.0,-100.00,South,177,5.0,12.0,46,0.00,,,0.00,0.000000,,2013-03-10 07:32:00,
2013-03-09 23:42:00,36.0,17.0,-100.00,South,177,5.0,12.0,46,0.00,,,0.00,0.000000,,2013-03-10 07:42:00,
2013-03-09 23:52:00,36.0,17.0,-100.00,South,177,5.0,12.0,46,0.00,,,0.00,0.000000,,2013-03-10 07:52:00,